Redding, CA

12:52 PM PDT on April 21, 2018 (GMT -0700)
Redding Municipal

Weather History for KRDD - October, 2012

Change the Weather History Date:

Thursday, October 25, 2012

  Actual Average Record
Temperature  
Mean Temperature 55 °F -  
Max Temperature 65 °F 73 °F 95 °F (2017)
Min Temperature 45 °F 47 °F 36 °F (1996)
Degree Days  
Heating Degree Days 10    
Month to date heating degree days 68  
Cooling Degree Days 0    
Month to date cooling degree days 83  
Year to date cooling degree days 1940  
Growing Degree Days 4 (Base 50)    
Moisture  
Dew Point 39 °F    
Average Humidity 62    
Maximum Humidity 93    
Minimum Humidity 30    
Precipitation  
Precipitation T in 0.09 in 1.80 in (1991)
Month to date precipitation 1.79 1.47  
Year to date precipitation 19.08 23.24  
Since 1 July precipitation 1.79  
Sea Level Pressure  
Sea Level Pressure 30.28 in    
Wind  
Wind Speed 5 mph (NNW)    
Max Wind Speed 16 mph    
Max Gust Speed 21 mph    
Visibility 10 miles    
Events      
T = Trace of Precipitation, MM = Missing Value Source: NWS Daily Summary

Daily Weather History Graph

Daily Weather History Graph

Search for Another Location

Airport or City:

Astronomy

Oct. 25, 2012 Rise Set
Actual Time 7:31 AM PDT 6:13 PM PDT
Civil Twilight 7:03 AM PDT 6:41 PM PDT
Nautical Twilight 6:31 AM PDT 7:13 PM PDT
Astronomical Twilight 6:00 AM PDT 7:45 PM PDT
Moon 4:03 PM PDT (10/25) 3:32 AM PDT (10/25)
Length of Visible Light 11h 38m
Length of Day
10h 42m
Waxing Gibbous, 85% of the Moon is Illuminated
Oct 25
Waxing Gibbous
Oct 29
Full
Nov 6
Last Quarter
Nov 13
New
Nov 20
First Quarter

Hourly Weather History & Observations

Time (PDT) Temp. Windchill Dew Point Humidity Pressure Visibility Wind Dir Wind Speed Gust Speed Precip Events Conditions
12:53 AM 48.0 °F - 46.0 °F 93% 30.19 in 10.0 mi Calm Calm - N/A   Mostly Cloudy
1:53 AM 46.9 °F - 45.0 °F 93% 30.22 in 10.0 mi NNW 4.6 mph - N/A   Partly Cloudy
2:53 AM 46.9 °F - 44.1 °F 90% 30.22 in 10.0 mi NNW 4.6 mph - N/A   Mostly Cloudy
3:53 AM 46.9 °F - 44.1 °F 90% 30.23 in 7.0 mi NW 4.6 mph - N/A   Overcast
4:53 AM 46.9 °F - 45.0 °F 93% 30.23 in 10.0 mi NNW 3.5 mph - N/A   Overcast
5:53 AM 46.9 °F - 44.1 °F 90% 30.25 in 10.0 mi Calm Calm - 0.00 in   Overcast
6:53 AM 46.9 °F - 44.1 °F 90% 30.27 in 10.0 mi North 5.8 mph - N/A   Overcast
7:53 AM 46.0 °F 44.8 °F 43.0 °F 89% 30.30 in 10.0 mi NW 3.5 mph - N/A   Scattered Clouds
8:53 AM 46.9 °F - 42.1 °F 83% 30.30 in 7.0 mi NW 3.5 mph - N/A   Clear
9:53 AM 52.0 °F - 42.1 °F 69% 30.31 in 10.0 mi North 5.8 mph - N/A   Clear
10:53 AM 55.9 °F - 42.1 °F 60% 30.32 in 10.0 mi North 9.2 mph - N/A   Clear
11:53 AM 59.0 °F - 39.9 °F 49% 30.32 in 10.0 mi North 5.8 mph - N/A   Clear
12:53 PM 61.0 °F - 37.9 °F 42% 30.32 in 10.0 mi North 6.9 mph - N/A   Clear
1:53 PM 62.1 °F - 36.0 °F 38% 30.30 in 10.0 mi NNW 8.1 mph - N/A   Clear
2:53 PM 64.0 °F - 32.0 °F 30% 30.29 in 10.0 mi North 10.4 mph 20.7 mph N/A   Clear
3:53 PM 64.0 °F - 32.0 °F 30% 30.28 in 10.0 mi NNE 16.1 mph - N/A   Clear
4:53 PM 63.0 °F - 33.1 °F 33% 30.27 in 10.0 mi North 13.8 mph - N/A   Clear
5:53 PM 62.1 °F - 32.0 °F 32% 30.27 in 10.0 mi North 10.4 mph - N/A   Clear
6:53 PM 59.0 °F - 34.0 °F 39% 30.29 in 10.0 mi North 8.1 mph - N/A   Clear
7:53 PM 55.9 °F - 36.0 °F 47% 30.30 in 10.0 mi NNW 6.9 mph - N/A   Clear
8:53 PM 54.0 °F - 37.0 °F 53% 30.29 in 10.0 mi NNW 4.6 mph - N/A   Clear
9:53 PM 52.0 °F - 36.0 °F 54% 30.28 in 10.0 mi NW 4.6 mph - N/A   Clear
10:53 PM 52.0 °F - 36.0 °F 54% 30.28 in 10.0 mi Calm Calm - N/A   Clear
11:53 PM 48.2 °F - 37.4 °F 66% 30.28 in 10.0 mi Calm Calm - N/A   Clear